Погода в Моламьяйне

Мьянма     16°29′14″N   97°37′52″E
темп.,
°C
ветер,
м/с
пор.,
м/с
влажн.,
%
обл.,
%
осадки,
мм/ч
давл.,
гПа
погр.,
м
26 сентября, вс
вс2600:30+24ю3698100 13.3 1005273
03:30+23ю3499100 11.4 1004226
06:30+23ю3698100 15.0 1005297
09:30+24ююв3798100 3.1 1007373
12:30+24юв4795100 5.6 1006418
15:30+25юв2594100 2.1 1004245
18:30+24юв2597100 5.5 1006205
21:30+24юв1296100 4.1 100857
27 сентября, пн
пн2700:30+23вюв3597100 4.6 1008170
03:30+23вюв2598100 3.6 1006199
06:30+23юв3697100 4.8 1008212
09:30+24вюв2393100 0.5 1010195
12:30+27в0182100 1.8 1008363
15:30+26ю1287100 3.4 1006118
18:30+25зюз1291100 3.6 100818
21:30+24всв0091100 0.0 101011
28 сентября, вт
вт2800:30+24всв1194100 0.4 100911
03:30+24св1195100 0.1 100822
06:30+24всв1295100 0.1 1009102
09:30+28всв238189 0.0 1011549
12:30+31вюв116884 0.2 10071017
15:30+31юз437051 0.2 1005879
18:30+26юз3689100 2.5 1007140
21:30+26з2290100 0.8 101044
29 сентября, ср
ср2900:30+25ссв119370 0.8 100914
03:30+24св11977 0.0 100826
06:30+24всв12958 0.0 100986
09:30+29св228031 0.0 1010646
12:30+32ссв226733 0.0 10071163
15:30+32зюз32655 0.0 10041013
18:30+26зюз259294 2.8 100699
21:30+26з2592100 4.9 1009117
30 сентября, чт
чт3000:30+26ююз009298 5.6 100811
03:30+25всв119545 0.2 100718
06:30+25в119423 0.3 100958
09:30+29в217952 0.0 1010616
12:30+32з116668 0.1 10071352
15:30+30зюз558096 0.9 1005474
18:30+27юз2388100 1.2 100761
21:30+26ююз2289100 0.8 100924